Location: Charlotte
(35.2270°N, 80.8430°W)
Time: 03:15:20
(UTC-04:00)

Daily predictions for brighter satellites

Satellite Brightness Start Highest point End
(mag) Time Altitude Azimuth Time Altitude Azimuth Time Altitude Azimuth
CZ-3 R/B 4.1 03:42:44 10° W 04:38:01 68° SSW 04:49:26 10° ESE
USA 267 3.5 04:36:14 10° ESE 04:42:04 64° ENE 04:42:04 64° ENE
CZ-4C R/B 3.7 04:40:23 27° N 04:44:08 47° NE 04:51:47 10° SE
Cosmos 1943 Rocket 4.0 04:47:54 22° NNE 04:47:54 22° NNE 04:49:50 10° NNE
ADEOS II 3.8 04:50:15 10° NNE 04:52:28 26° NNE 04:52:28 26° NNE
Okean O Rocket 2.9 05:04:18 10° NNE 05:07:32 38° ENE 05:07:32 38° ENE
Cosmos 1758 Rocket 4.3 05:18:13 52° ENE 05:18:13 52° ENE 05:22:07 10° NNE
Cosmos 2154 Rocket 4.4 05:12:01 10° N 05:18:18 63° E 05:24:31 10° SSE
Cosmos 44 Rocket 3.5 05:20:56 69° ENE 05:20:56 69° ENE 05:25:41 10° SE
Cosmos 2369 Rocket 4.3 05:28:59 14° NNW 05:28:59 14° NNW 05:29:58 10° N
Meteor 2-19 Rocket 4.3 05:26:06 10° N 05:32:17 77° W 05:38:25 10° S
Cosmos 1610 Rocket 4.3 05:33:40 10° NNW 05:39:46 67° W 05:45:49 10° S
Meteor 1-31 Rocket 3.4 05:39:04 10° NNE 05:42:48 54° E 05:46:31 10° S
RUBIN 8/PSLV 4.3 05:39:48 10° N 05:44:05 78° WNW 05:44:10 77° W
Milstar 3 3.3 05:43:13 36° SW 05:45:20 47° S 05:52:46 10° ESE
Cosmos 1707 3.9 05:51:03 31° NNW 05:51:03 31° NNW 05:53:16 10° N
Cosmos 1833 4.2 05:50:59 33° NW 05:53:14 55° WSW 05:58:40 10° S
Cosmos 2219 4.1 05:50:58 10° N 05:56:27 48° ENE 06:01:51 10° SE
Cosmos 962 Rocket 4.4 05:50:27 10° N 05:56:37 89° W 06:02:43 10° S
Meteor 2-5 Rocket 3.8 05:52:40 10° S 05:58:36 89° WNW 06:04:29 10° N
APEX 3.3 05:57:23 31° NNW 05:59:14 86° WSW 06:04:06 10° SSE
Cosmos 1378 4.5 06:01:44 26° NNW 06:01:44 26° NNW 06:03:38 10° N
PAYLOAD B 4.4 06:02:06 10° N 06:07:21 47° WNW 06:12:35 10° SW
GPS 2-04 Rocket1 2.6 06:07:14 48° WSW 06:08:00 61° SSW 06:11:37 10° ESE
Cosmos 2181 Rocket 3.9 06:01:46 10° S 06:08:01 75° W 06:14:13 10° N
Cosmos 2341 Rocket 3.9 06:02:11 10° N 06:08:33 73° W 06:14:53 10° S
Cosmos 1953 Rocket 4.0 06:09:03 36° WNW 06:09:03 36° WNW 06:12:52 10° NNW
USA 81 4.0 06:05:28 10° S 06:10:44 86° E 06:16:02 10° N
Cosmos 1656 Rocket 4.3 06:09:34 30° W 06:10:56 34° WNW 06:16:03 10° N
SJ 16-02 1.3 06:07:33 10° SSW 06:11:57 87° ESE 06:16:22 10° NNE
EO 1 Del DPAF 4.5 06:08:24 10° SE 06:12:01 43° ENE 06:15:40 10° N
NOSS 3-1 (C) 3.5 06:10:27 25° WSW 06:13:30 49° NW 06:19:36 10° NNE
OAO 2 Rocket 3.2 06:12:44 31° W 06:15:08 79° S 06:20:05 10° ESE
NOSS 3-1 (A) 3.3 06:14:02 14° SW 06:18:57 64° NW 06:25:13 10° NNE
Cosmos 1809 Rocket 4.4 06:13:09 10° NNW 06:19:14 71° W 06:25:19 10° S
Meteor 1-16 Rocket 4.2 06:15:49 10° NNW 06:21:30 71° W 06:27:17 10° S
CZ-4B R/B 4.4 06:21:08 10° N 06:25:24 45° WNW 06:29:41 10° SSW
USA 267 4.1 06:20:28 10° S 06:25:55 28° SW 06:29:27 18° W
Landsat 4 3.8 06:23:58 10° S 06:27:39 53° W 06:31:22 10° NNW
Cosmos 1356 Rocket 4.0 06:24:10 10° SW 06:28:06 36° WNW 06:32:06 10° N
CZ-4B R/B 3.8 06:25:41 10° N 06:30:31 33° WNW 06:35:26 10° SW
CZ-4C R/B 3.5 06:25:54 10° NW 06:32:44 38° WSW 06:39:59 10° S
ADEOS II 4.0 06:32:49 10° NW 06:33:24 11° NW 06:33:24 11° NW
Tiangong 2 1.1 06:32:51 22° WNW 06:34:47 81° NNE 06:38:00 10° ESE
Cosmos 1356 3.3 06:31:33 10° SSW 06:34:59 63° W 06:38:27 10° N
USA 116 3.6 06:32:47 10° S 06:36:07 51° W 06:39:52 10° NNW
Cosmos 1269 Rocket 4.2 06:31:43 10° NNW 06:37:02 79° ENE 06:42:19 10° SSE
Meteor 1-28 Rocket 3.3 06:36:28 10° S 06:40:11 54° W 06:43:56 10° NNW
Meteor 2-21 Rocket 4.4 06:36:33 10° NNW 06:42:31 60° W 06:48:28 10° S
Okean O Rocket 3.3 06:42:12 10° NW 06:44:28 14° WNW 06:44:59 14° WNW
IDEFIX/ARIANE 42P 2.9 06:42:26 10° NNE 06:47:41 72° ESE 06:52:51 10° S
Cosmos 372 Rocket 4.5 06:44:17 10° SW 06:49:05 37° WNW 06:53:58 10° N
CZ-2C R/B 4.4 06:44:50 10° SSW 06:49:11 36° W 06:53:33 10° NNW
Shenzhou-11 Module 3.3 06:54:22 12° W 06:56:37 26° SW 06:59:14 10° SSE
Cosmos 2278 3.9 06:51:21 10° SSW 06:56:58 79° ESE 07:02:38 10° NNE
Okean-O 3.0 06:54:12 10° N 06:58:23 42° WNW 07:02:33 10° SW
Cosmos 1125 Rocket 4.4 06:54:52 10° WSW 06:59:19 28° WNW 07:03:49 10° N
Cosmos-2242 4.2 06:56:50 10° NW 07:00:03 21° W 07:03:17 10° SW
PAYLOAD A 3.8 06:56:01 10° N 07:00:44 75° WNW 07:05:33 10° SSW
Cosmos 2366 rocket 4.1 06:56:25 10° NNW 07:02:25 57° W 07:08:26 10° SSW
Meteor 1-24 Rocket 4.3 06:57:43 10° SW 07:03:17 39° WNW 07:08:50 10° N
NOAA 6 4.4 06:59:07 10° N 07:04:00 44° WNW 07:08:50 10° SW
